Location: Unspecified
(0.0000°N, 0.0000°E)
Time: 13:56:54
(UTC+00:00)

Courier 1B - All Passes

Search period start: 02 February 2023 00:00
Search period end: 12 February 2023 00:00
Orbit: 962 x 1209 km, 28.3° (Epoch: 01 February)

Date Brightness Start Highest point End Pass type
(mag) Time Alt. Az. Time Alt. Az. Time Alt. Az.
02 Feb - 06:40:49 10° SSW 06:47:04 27° SSE 06:53:04 10° E daylight
02 Feb - 08:34:07 10° WSW 08:41:39 84° SSE 08:48:42 10° ENE daylight
02 Feb - 10:29:54 10° W 10:35:53 29° NNW 10:41:36 10° NNE daylight
02 Feb - 18:14:38 10° NNW 18:19:13 20° NNE 18:23:57 10° ENE daylight
02 Feb - 20:06:47 10° NW 20:13:30 70° NNE 20:20:41 10° ESE visible
02 Feb - 22:01:30 10° W 22:07:50 35° SSW 22:14:32 10° SE visible
03 Feb - 00:00:19 10° SW 00:03:06 12° SSW 00:05:56 10° S night (unlit)
03 Feb - 05:47:23 10° SSW 05:52:53 20° SSE 05:58:12 10° ESE visible
03 Feb - 07:40:09 10° SW 07:47:42 62° SSE 07:54:48 10° ENE daylight
03 Feb - 09:35:10 10° W 09:41:57 40° NNW 09:48:22 10° NE daylight
03 Feb - 11:34:29 10° NW 11:36:41 12° NNW 11:38:51 10° N daylight
03 Feb - 17:22:01 10° N 17:25:13 14° NNE 17:28:27 10° NE daylight
03 Feb - 19:13:18 10° NW 19:19:40 49° NNE 19:26:25 10° ESE visible
03 Feb - 21:07:17 10° WNW 21:13:50 47° SSW 21:20:51 10° SE visible
03 Feb - 23:04:38 10° WSW 23:08:46 16° SSW 23:13:02 10° SSE night (unlit)
04 Feb - 04:54:10 10° SSW 04:58:34 16° SSE 05:02:54 10° SE visible
04 Feb - 06:46:20 10° SW 06:53:41 45° SSE 07:00:41 10° E daylight
04 Feb - 08:40:41 10° WSW 08:48:03 56° NNW 08:54:58 10° NE daylight
04 Feb - 10:38:17 10° WNW 10:42:34 17° NNW 10:46:43 10° NNE daylight
04 Feb - 18:19:58 10° NW 18:25:51 35° NNE 18:31:57 10° E daylight
04 Feb - 20:13:17 10° WNW 20:19:56 66° SSW 20:27:02 10° SE visible
04 Feb - 22:09:33 10° WSW 22:14:34 20° SSW 22:19:48 10° SSE visible
05 Feb - 04:01:23 10° S 04:04:10 12° SSE 04:06:56 10° SE visible
05 Feb - 05:52:39 10° SW 05:59:36 34° SSE 06:06:18 10° E daylight
05 Feb - 07:46:24 10° WSW 07:54:06 77° NNW 08:01:22 10° NE daylight
05 Feb - 09:42:54 10° WNW 09:48:31 23° NNW 09:53:53 10° NNE daylight
05 Feb - 17:26:49 10° NNW 17:31:58 25° NNE 17:37:16 10° E daylight
05 Feb - 19:19:30 10° WNW 19:26:06 90° N 19:33:06 10° ESE visible
05 Feb - 21:14:51 10° W 21:20:28 27° SSW 21:26:23 10° SSE visible
06 Feb - 04:59:07 10° SSW 05:05:26 26° SSE 05:11:37 10° E visible
06 Feb - 06:52:18 10° SW 07:00:08 79° SSE 07:07:33 10° ENE daylight
06 Feb - 08:47:55 10° W 08:54:30 32° NNW 09:00:46 10° NNE daylight
06 Feb - 16:33:52 10° NNW 16:38:03 18° NNE 16:42:15 10° ENE daylight
06 Feb - 18:25:53 10° NW 18:32:19 65° NNE 18:39:03 10° ESE visible
06 Feb - 20:20:26 10° W 20:26:29 36° SSW 20:32:52 10° SE visible
06 Feb - 22:19:10 10° SW 22:21:34 12° SSW 22:24:02 10° S visible
07 Feb - 04:05:47 10° SSW 04:11:11 20° SSE 04:16:34 10° ESE visible
07 Feb - 05:58:23 10° SW 06:06:06 59° SSE 06:13:32 10° ENE daylight
07 Feb - 07:53:14 10° W 08:00:30 44° NNW 08:07:24 10° NE daylight
07 Feb - 09:51:53 10° NW 09:55:18 14° NNW 09:58:38 10° N daylight
07 Feb - 15:41:21 10° N 15:44:00 13° NNE 15:46:40 10° NE daylight
07 Feb - 17:32:24 10° NW 17:38:32 45° NNE 17:44:51 10° E daylight
07 Feb - 19:26:17 10° WNW 19:32:35 49° SSW 19:39:14 10° SE visible
07 Feb - 21:23:30 10° SW 21:27:20 15° SSW 21:31:17 10° SSE visible
08 Feb - 03:12:43 10° S 03:16:53 15° SSE 03:21:02 10° SE visible
08 Feb - 05:04:37 10° SW 05:12:01 44° SSE 05:19:16 10° E visible
08 Feb - 06:58:48 10° WSW 07:06:30 61° NNW 07:13:52 10° NE daylight
08 Feb - 08:56:04 10° WNW 09:01:07 19° NNW 09:06:02 10° NNE daylight
08 Feb - 16:39:04 10° NNW 16:44:44 32° NNE 16:50:27 10° E daylight
08 Feb - 18:32:19 10° WNW 18:38:46 69° SSW 18:45:30 10° SE visible
08 Feb - 20:28:27 10° WSW 20:33:12 20° SSW 20:38:08 10° SSE visible
09 Feb - 02:20:21 10° S 02:22:28 11° SSE 02:24:37 10° SE visible
09 Feb - 04:11:02 10° SSW 04:17:54 33° SSE 04:24:44 10° E visible
09 Feb - 06:04:35 10° WSW 06:12:29 83° NNW 06:20:08 10° ENE daylight
09 Feb - 08:00:49 10° W 08:07:01 26° NNW 08:13:00 10° NNE daylight
09 Feb - 15:45:52 10° NNW 15:50:51 23° NNE 15:55:49 10° ENE daylight
09 Feb - 17:38:32 10° WNW 17:45:00 85° NNE 17:51:39 10° ESE daylight
09 Feb - 19:33:47 10° W 19:39:12 27° SSW 19:44:50 10° SSE visible
10 Feb - 03:17:37 10° SSW 03:23:43 25° SSE 03:29:52 10° ESE visible
10 Feb - 05:10:34 10° SW 05:18:27 75° SSE 05:26:11 10° ENE visible
10 Feb - 07:05:56 10° W 07:12:56 36° NNW 07:19:42 10° NE daylight
10 Feb - 09:05:55 10° NW 09:08:03 11° NNW 09:10:09 10° N daylight
10 Feb - 14:52:53 10° NNW 14:56:53 17° NNE 15:00:51 10° ENE daylight
10 Feb - 16:44:53 10° NW 16:51:15 60° NNE 16:57:40 10° ESE daylight
10 Feb - 18:39:24 10° W 18:45:18 37° SSW 18:51:24 10° SE visible
10 Feb - 20:38:12 10° SW 20:40:11 11° SSW 20:42:12 10° S visible
11 Feb - 02:24:27 10° SSW 02:29:30 18° SSE 02:34:36 10° ESE visible
11 Feb - 04:16:45 10° SW 04:24:23 55° SSE 04:32:01 10° ENE visible
11 Feb - 06:11:20 10° WSW 06:18:52 48° NNW 06:26:12 10° NE daylight
11 Feb - 08:09:27 10° WNW 08:13:46 16° NNW 08:17:59 10° N daylight
11 Feb - 14:00:18 10° N 14:02:49 12° NNE 14:05:17 10° NE daylight
11 Feb - 15:51:22 10° NW 15:57:28 42° NNE 16:03:32 10° E daylight
11 Feb - 17:45:14 10° WNW 17:51:28 51° SSW 17:57:52 10° SE daylight
11 Feb - 19:42:25 10° WSW 19:46:02 15° SSW 19:49:43 10° S visible
